Time,TemperatureF,DewpointF,PressureIn,WindDirection,WindDirectionDegrees,WindSpeedMPH,WindSpeedGustMPH,Humidity,HourlyPrecipIn,Conditions,Clouds,dailyrainin,SoftwareType,DateUTC
2013-02-12 00:01:00,6.0,-7.0,-100.00,SE,135,9.0,13.0,55,-99.99,,,-99.99,,2013-02-12 07:01:00,
2013-02-12 00:11:00,4.0,-8.0,-100.00,ENE,70,3.0,13.0,56,-99.99,,,-99.99,,2013-02-12 07:11:00,
2013-02-12 00:21:00,3.0,-9.0,-100.00,ESE,105,10.0,12.0,57,-99.99,,,-99.99,,2013-02-12 07:21:00,
2013-02-12 00:31:00,2.0,-10.0,-100.00,ESE,110,8.0,11.0,58,-99.99,,,-99.99,,2013-02-12 07:31:00,
2013-02-12 00:41:00,1.0,-9.0,-100.00,ESE,115,11.0,12.0,60,-99.99,,,-99.99,,2013-02-12 07:41:00,
2013-02-12 00:51:00,2.0,-8.0,-100.00,SSE,150,9.0,12.0,59,-99.99,,,-99.99,,2013-02-12 07:51:00,
2013-02-12 01:01:00,4.0,-7.0,-100.00,SE,145,12.0,17.0,59,-99.99,,,-99.99,,2013-02-12 08:01:00,
2013-02-12 01:11:00,4.0,-7.0,-100.00,SE,135,12.0,17.0,59,-99.99,,,-99.99,,2013-02-12 08:11:00,
2013-02-12 01:21:00,4.0,-7.0,-100.00,SSE,150,12.0,17.0,60,-99.99,,,-99.99,,2013-02-12 08:21:00,
2013-02-12 01:31:00,4.0,-6.0,-100.00,South,190,15.0,19.0,60,-99.99,,,-99.99,,2013-02-12 08:31:00,
2013-02-12 01:41:00,4.0,-7.0,-100.00,South,190,15.0,22.0,60,-99.99,,,-99.99,,2013-02-12 08:41:00,
2013-02-12 01:52:00,3.0,-8.0,-100.00,SSW,195,17.0,21.0,60,-99.99,,,-99.99,,2013-02-12 08:52:00,
2013-02-12 02:01:00,2.0,-8.0,-100.00,South,185,16.0,22.0,60,-99.99,,,-99.99,,2013-02-12 09:01:00,
2013-02-12 02:11:00,2.0,-8.0,-100.00,South,190,16.0,21.0,60,-99.99,,,-99.99,,2013-02-12 09:11:00,
2013-02-12 02:21:00,1.0,-9.0,-100.00,South,185,17.0,21.0,62,-99.99,,,-99.99,,2013-02-12 09:21:00,
2013-02-12 02:31:00,1.0,-9.0,-100.00,South,190,14.0,23.0,62,-99.99,,,-99.99,,2013-02-12 09:31:00,
2013-02-12 02:41:00,1.0,-9.0,-100.00,SSW,195,17.0,20.0,62,-99.99,,,-99.99,,2013-02-12 09:41:00,
2013-02-12 02:51:00,2.0,-8.0,-100.00,SSW,195,17.0,22.0,62,-99.99,,,-99.99,,2013-02-12 09:51:00,
2013-02-12 03:01:00,2.0,-8.0,-100.00,South,190,19.0,22.0,62,-99.99,,,-99.99,,2013-02-12 10:01:00,
2013-02-12 03:11:00,2.0,-8.0,-100.00,South,185,19.0,24.0,62,-99.99,,,-99.99,,2013-02-12 10:11:00,
2013-02-12 03:21:00,2.0,-8.0,-100.00,South,185,18.0,24.0,61,-99.99,,,-99.99,,2013-02-12 10:21:00,
2013-02-12 03:31:00,2.0,-8.0,-100.00,SSW,195,19.0,26.0,61,-99.99,,,-99.99,,2013-02-12 10:31:00,
2013-02-12 03:43:00,2.0,-8.0,-100.00,SSW,195,21.0,24.0,61,-99.99,,,-99.99,,2013-02-12 10:43:00,
2013-02-12 03:51:00,2.0,-7.0,-100.00,SSW,200,22.0,26.0,61,-99.99,,,-99.99,,2013-02-12 10:51:00,
2013-02-12 04:01:00,3.0,-7.0,-100.00,SSW,205,22.0,26.0,62,-99.99,,,-99.99,,2013-02-12 11:01:00,
2013-02-12 04:11:00,3.0,-7.0,-100.00,SSW,200,22.0,27.0,61,-99.99,,,-99.99,,2013-02-12 11:11:00,
2013-02-12 04:21:00,2.0,-8.0,-100.00,SSW,200,20.0,25.0,62,-99.99,,,-99.99,,2013-02-12 11:21:00,
2013-02-12 04:31:00,2.0,-7.0,-100.00,SSW,200,22.0,26.0,62,-99.99,,,-99.99,,2013-02-12 11:31:00,
2013-02-12 04:41:00,3.0,-7.0,-100.00,SSW,200,21.0,27.0,62,-99.99,,,-99.99,,2013-02-12 11:41:00,
2013-02-12 04:52:00,3.0,-7.0,-100.00,SSW,195,24.0,30.0,62,-99.99,,,-99.99,,2013-02-12 11:52:00,
2013-02-12 05:01:00,2.0,-8.0,-100.00,SSW,195,23.0,28.0,62,-99.99,,,-99.99,,2013-02-12 12:01:00,
2013-02-12 05:11:00,2.0,-8.0,-100.00,SSW,195,22.0,26.0,62,-99.99,,,-99.99,,2013-02-12 12:11:00,
2013-02-12 05:21:00,2.0,-8.0,-100.00,SSW,200,23.0,27.0,62,-99.99,,,-99.99,,2013-02-12 12:21:00,
2013-02-12 05:32:00,2.0,-8.0,-100.00,SSW,195,22.0,27.0,63,-99.99,,,-99.99,,2013-02-12 12:32:00,
2013-02-12 05:41:00,2.0,-7.0,-100.00,SSW,200,26.0,29.0,63,-99.99,,,-99.99,,2013-02-12 12:41:00,
2013-02-12 05:52:00,2.0,-7.0,-100.00,SSW,195,24.0,28.0,63,-99.99,,,-99.99,,2013-02-12 12:52:00,
2013-02-12 06:01:00,1.0,-8.0,-100.00,SSW,200,24.0,27.0,63,-99.99,,,-99.99,,2013-02-12 13:01:00,
2013-02-12 06:11:00,1.0,-8.0,-100.00,SSW,195,22.0,29.0,63,-99.99,,,-99.99,,2013-02-12 13:11:00,
2013-02-12 06:21:00,1.0,-8.0,-100.00,SSW,195,23.0,29.0,64,-99.99,,,-99.99,,2013-02-12 13:21:00,
2013-02-12 06:31:00,2.0,-7.0,-100.00,SSW,195,24.0,30.0,64,-99.99,,,-99.99,,2013-02-12 13:31:00,
2013-02-12 06:41:00,1.0,-8.0,-100.00,SSW,195,19.0,26.0,64,-99.99,,,-99.99,,2013-02-12 13:41:00,
2013-02-12 06:51:00,2.0,-7.0,-100.00,SSW,200,24.0,29.0,64,-99.99,,,-99.99,,2013-02-12 13:51:00,
2013-02-12 07:01:00,1.0,-8.0,-100.00,SSW,195,23.0,30.0,64,-99.99,,,-99.99,,2013-02-12 14:01:00,
2013-02-12 07:11:00,2.0,-7.0,-100.00,SSW,195,24.0,30.0,64,-99.99,,,-99.99,,2013-02-12 14:11:00,
2013-02-12 07:21:00,2.0,-7.0,-100.00,SSW,200,24.0,28.0,64,-99.99,,,-99.99,,2013-02-12 14:21:00,
2013-02-12 07:31:00,1.0,-8.0,-100.00,SSW,195,24.0,32.0,64,-99.99,,,-99.99,,2013-02-12 14:31:00,
2013-02-12 07:41:00,1.0,-8.0,-100.00,SSW,200,26.0,29.0,65,-99.99,,,-99.99,,2013-02-12 14:41:00,
2013-02-12 07:52:00,1.0,-8.0,-100.00,SSW,195,27.0,30.0,66,-99.99,,,-99.99,,2013-02-12 14:52:00,
2013-02-12 08:01:00,2.0,-7.0,-100.00,SSW,195,23.0,31.0,66,-99.99,,,-99.99,,2013-02-12 15:01:00,
2013-02-12 08:11:00,2.0,-7.0,-100.00,SSW,200,31.0,35.0,65,-99.99,,,-99.99,,2013-02-12 15:11:00,
2013-02-12 08:21:00,4.0,-5.0,-100.00,SSW,205,30.0,37.0,65,-99.99,,,-99.99,,2013-02-12 15:21:00,
2013-02-12 08:32:00,4.0,-5.0,-100.00,SSW,200,28.0,36.0,65,-99.99,,,-99.99,,2013-02-12 15:32:00,
2013-02-12 08:52:00,5.0,-5.0,-100.00,SSW,200,25.0,32.0,64,-99.99,,,-99.99,,2013-02-12 15:52:00,
2013-02-12 09:01:00,5.0,-5.0,-100.00,SSW,210,27.0,32.0,64,-99.99,,,-99.99,,2013-02-12 16:01:00,
2013-02-12 09:11:00,5.0,-4.0,-100.00,SW,215,26.0,32.0,64,-99.99,,,-99.99,,2013-02-12 16:11:00,
2013-02-12 09:21:00,4.0,-5.0,-100.00,SSW,210,26.0,30.0,64,-99.99,,,-99.99,,2013-02-12 16:21:00,
2013-02-12 09:31:00,4.0,-5.0,-100.00,SSW,210,25.0,32.0,64,-99.99,,,-99.99,,2013-02-12 16:31:00,
2013-02-12 09:41:00,4.0,-5.0,-100.00,SSW,210,23.0,30.0,64,-99.99,,,-99.99,,2013-02-12 16:41:00,
2013-02-12 09:51:00,6.0,-4.0,-100.00,SW,215,20.0,26.0,64,-99.99,,,-99.99,,2013-02-12 16:51:00,
2013-02-12 10:01:00,7.0,-3.0,-100.00,SW,215,20.0,25.0,62,-99.99,,,-99.99,,2013-02-12 17:01:00,
2013-02-12 10:11:00,8.0,-3.0,-100.00,SSW,210,16.0,22.0,62,-99.99,,,-99.99,,2013-02-12 17:11:00,
2013-02-12 10:21:00,6.0,-4.0,-100.00,SSW,200,17.0,20.0,62,-99.99,,,-99.99,,2013-02-12 17:21:00,
2013-02-12 10:31:00,7.0,-3.0,-100.00,SSW,200,19.0,22.0,63,-99.99,,,-99.99,,2013-02-12 17:31:00,
2013-02-12 10:41:00,9.0,-1.0,-100.00,SSW,210,16.0,22.0,61,-99.99,,,-99.99,,2013-02-12 17:41:00,
2013-02-12 10:52:00,10.0,-1.0,-100.00,SW,215,14.0,19.0,59,-99.99,,,-99.99,,2013-02-12 17:52:00,
2013-02-12 11:01:00,11.0,0.0,-100.00,SSW,210,9.0,14.0,59,-99.99,,,-99.99,,2013-02-12 18:01:00,
2013-02-12 11:11:00,13.0,0.0,-100.00,SSW,205,10.0,14.0,55,-99.99,,,-99.99,,2013-02-12 18:11:00,
2013-02-12 11:22:00,14.0,1.0,-100.00,SW,215,12.0,15.0,55,-99.99,,,-99.99,,2013-02-12 18:22:00,
2013-02-12 11:31:00,13.0,0.0,-100.00,SSW,210,14.0,17.0,55,-99.99,,,-99.99,,2013-02-12 18:31:00,
2013-02-12 11:41:00,15.0,1.0,-100.00,SSW,210,15.0,17.0,53,-99.99,,,-99.99,,2013-02-12 18:41:00,
2013-02-12 11:51:00,14.0,0.0,-100.00,SSW,205,16.0,17.0,52,-99.99,,,-99.99,,2013-02-12 18:51:00,
2013-02-12 12:01:00,14.0,0.0,-100.00,SSW,200,14.0,17.0,55,-99.99,,,-99.99,,2013-02-12 19:01:00,
2013-02-12 12:11:00,13.0,1.0,-100.00,South,190,14.0,17.0,56,-99.99,,,-99.99,,2013-02-12 19:11:00,
2013-02-12 12:21:00,14.0,1.0,-100.00,SSW,195,15.0,19.0,55,-99.99,,,-99.99,,2013-02-12 19:21:00,
2013-02-12 12:31:00,14.0,0.0,-100.00,SSW,205,16.0,21.0,54,-99.99,,,-99.99,,2013-02-12 19:31:00,
2013-02-12 12:41:00,15.0,2.0,-100.00,SSW,210,15.0,19.0,54,-99.99,,,-99.99,,2013-02-12 19:41:00,
2013-02-12 12:51:00,15.0,2.0,-100.00,SW,230,20.0,24.0,55,-99.99,,,-99.99,,2013-02-12 19:51:00,
2013-02-12 13:01:00,15.0,2.0,-100.00,SW,225,21.0,24.0,56,-99.99,,,-99.99,,2013-02-12 20:01:00,
2013-02-12 13:11:00,15.0,3.0,-100.00,SW,230,21.0,24.0,57,-99.99,,,-99.99,,2013-02-12 20:11:00,
2013-02-12 13:21:00,15.0,3.0,-100.00,SW,230,20.0,24.0,57,-99.99,,,-99.99,,2013-02-12 20:21:00,
2013-02-12 13:31:00,16.0,4.0,-100.00,SW,230,19.0,22.0,57,-99.99,,,-99.99,,2013-02-12 20:31:00,
2013-02-12 13:41:00,17.0,4.0,-100.00,SW,225,17.0,22.0,58,-99.99,,,-99.99,,2013-02-12 20:41:00,
2013-02-12 13:51:00,17.0,5.0,-100.00,SW,225,19.0,22.0,58,-99.99,,,-99.99,,2013-02-12 20:51:00,
2013-02-12 14:01:00,17.0,5.0,-100.00,SW,220,17.0,21.0,58,-99.99,,,-99.99,,2013-02-12 21:01:00,
2013-02-12 14:11:00,18.0,6.0,-100.00,SW,225,19.0,24.0,59,-99.99,,,-99.99,,2013-02-12 21:11:00,
2013-02-12 14:21:00,18.0,6.0,-100.00,SW,230,19.0,22.0,59,-99.99,,,-99.99,,2013-02-12 21:21:00,
2013-02-12 14:31:00,18.0,6.0,-100.00,SW,230,18.0,22.0,58,-99.99,,,-99.99,,2013-02-12 21:31:00,
2013-02-12 14:41:00,19.0,7.0,-100.00,SW,225,17.0,21.0,58,-99.99,,,-99.99,,2013-02-12 21:41:00,
2013-02-12 14:51:00,19.0,6.0,-100.00,SW,225,16.0,22.0,56,-99.99,,,-99.99,,2013-02-12 21:51:00,
2013-02-12 15:01:00,19.0,6.0,-100.00,SW,230,20.0,23.0,56,-99.99,,,-99.99,,2013-02-12 22:01:00,
2013-02-12 15:11:00,19.0,6.0,-100.00,SW,230,19.0,23.0,56,-99.99,,,-99.99,,2013-02-12 22:11:00,
2013-02-12 15:21:00,20.0,6.0,-100.00,WSW,240,20.0,24.0,53,-99.99,,,-99.99,,2013-02-12 22:21:00,
2013-02-12 15:31:00,21.0,5.0,-100.00,WSW,240,21.0,24.0,50,-99.99,,,-99.99,,2013-02-12 22:31:00,
2013-02-12 15:41:00,21.0,5.0,-100.00,WSW,240,20.0,24.0,49,-99.99,,,-99.99,,2013-02-12 22:41:00,
2013-02-12 15:51:00,21.0,6.0,-100.00,SW,235,20.0,24.0,51,-99.99,,,-99.99,,2013-02-12 22:51:00,
2013-02-12 16:01:00,20.0,6.0,-100.00,SW,230,19.0,24.0,54,-99.99,,,-99.99,,2013-02-12 23:01:00,
2013-02-12 16:11:00,20.0,7.0,-100.00,SW,230,20.0,24.0,56,-99.99,,,-99.99,,2013-02-12 23:11:00,
2013-02-12 16:21:00,19.0,7.0,-100.00,SW,225,21.0,25.0,58,-99.99,,,-99.99,,2013-02-12 23:21:00,
2013-02-12 16:31:00,19.0,7.0,-100.00,SW,230,21.0,26.0,59,-99.99,,,-99.99,,2013-02-12 23:31:00,
2013-02-12 16:41:00,20.0,8.0,-100.00,SW,225,21.0,23.0,58,-99.99,,,-99.99,,2013-02-12 23:41:00,
2013-02-12 16:52:00,19.0,8.0,-100.00,SW,230,21.0,23.0,58,-99.99,,,-99.99,,2013-02-12 23:52:00,
2013-02-12 17:02:00,19.0,8.0,-100.00,SW,230,18.0,22.0,58,-99.99,,,-99.99,,2013-02-13 00:02:00,
2013-02-12 17:11:00,19.0,7.0,-100.00,SW,225,19.0,22.0,59,-99.99,,,-99.99,,2013-02-13 00:11:00,
2013-02-12 17:21:00,19.0,7.0,-100.00,SW,225,18.0,21.0,59,-99.99,,,-99.99,,2013-02-13 00:21:00,
2013-02-12 17:32:00,18.0,7.0,-100.00,SW,225,18.0,21.0,60,-99.99,,,-99.99,,2013-02-13 00:32:00,
2013-02-12 17:41:00,18.0,7.0,-100.00,SW,230,19.0,21.0,60,-99.99,,,-99.99,,2013-02-13 00:41:00,
2013-02-12 17:51:00,17.0,6.0,-100.00,SW,225,17.0,22.0,60,-99.99,,,-99.99,,2013-02-13 00:51:00,
2013-02-12 18:01:00,17.0,6.0,-100.00,SW,230,19.0,21.0,61,-99.99,,,-99.99,,2013-02-13 01:01:00,
2013-02-12 18:11:00,17.0,6.0,-100.00,SW,225,18.0,21.0,61,-99.99,,,-99.99,,2013-02-13 01:11:00,
2013-02-12 18:21:00,16.0,6.0,-100.00,SW,225,18.0,22.0,61,-99.99,,,-99.99,,2013-02-13 01:21:00,
2013-02-12 18:31:00,16.0,5.0,-100.00,SW,225,17.0,20.0,61,-99.99,,,-99.99,,2013-02-13 01:31:00,
2013-02-12 18:42:00,16.0,5.0,-100.00,SW,225,17.0,20.0,61,-99.99,,,-99.99,,2013-02-13 01:42:00,
2013-02-12 18:51:00,16.0,5.0,-100.00,SW,225,17.0,19.0,61,-99.99,,,-99.99,,2013-02-13 01:51:00,
2013-02-12 19:01:00,16.0,5.0,-100.00,SW,225,19.0,21.0,62,-99.99,,,-99.99,,2013-02-13 02:01:00,
2013-02-12 19:11:00,16.0,6.0,-100.00,SW,225,19.0,22.0,62,-99.99,,,-99.99,,2013-02-13 02:11:00,
2013-02-12 19:21:00,16.0,6.0,-100.00,SW,225,17.0,21.0,62,-99.99,,,-99.99,,2013-02-13 02:21:00,
2013-02-12 19:31:00,16.0,6.0,-100.00,SW,225,19.0,22.0,62,-99.99,,,-99.99,,2013-02-13 02:31:00,
2013-02-12 19:41:00,16.0,6.0,-100.00,SW,225,20.0,22.0,62,-99.99,,,-99.99,,2013-02-13 02:41:00,
2013-02-12 19:51:00,16.0,6.0,-100.00,SW,225,21.0,24.0,63,-99.99,,,-99.99,,2013-02-13 02:51:00,
2013-02-12 20:01:00,16.0,6.0,-100.00,SW,220,20.0,24.0,63,-99.99,,,-99.99,,2013-02-13 03:01:00,
2013-02-12 20:11:00,16.0,6.0,-100.00,SW,230,21.0,24.0,63,-99.99,,,-99.99,,2013-02-13 03:11:00,
2013-02-12 20:21:00,16.0,6.0,-100.00,SW,225,21.0,25.0,63,-99.99,,,-99.99,,2013-02-13 03:21:00,
2013-02-12 20:31:00,16.0,6.0,-100.00,SW,225,17.0,22.0,63,-99.99,,,-99.99,,2013-02-13 03:31:00,
2013-02-12 20:41:00,16.0,6.0,-100.00,SW,225,17.0,20.0,63,-99.99,,,-99.99,,2013-02-13 03:41:00,
2013-02-12 20:51:00,17.0,6.0,-100.00,SW,220,16.0,20.0,62,-99.99,,,-99.99,,2013-02-13 03:51:00,
2013-02-12 21:01:00,17.0,6.0,-100.00,SW,220,14.0,19.0,61,-99.99,,,-99.99,,2013-02-13 04:01:00,
2013-02-12 21:11:00,17.0,7.0,-100.00,SW,220,15.0,18.0,62,-99.99,,,-99.99,,2013-02-13 04:11:00,
2013-02-12 21:21:00,17.0,6.0,-100.00,SW,220,17.0,19.0,62,-99.99,,,-99.99,,2013-02-13 04:21:00,
2013-02-12 21:31:00,17.0,7.0,-100.00,SW,220,16.0,20.0,62,-99.99,,,-99.99,,2013-02-13 04:31:00,
2013-02-12 21:41:00,17.0,6.0,-100.00,SW,220,16.0,17.0,62,-99.99,,,-99.99,,2013-02-13 04:41:00,
2013-02-12 21:51:00,16.0,5.0,-100.00,SW,215,14.0,17.0,62,-99.99,,,-99.99,,2013-02-13 04:51:00,
2013-02-12 22:01:00,15.0,5.0,-100.00,SSE,160,7.0,15.0,64,-99.99,,,-99.99,,2013-02-13 05:01:00,
2013-02-12 22:11:00,15.0,5.0,-100.00,ESE,120,6.0,9.0,64,-99.99,,,-99.99,,2013-02-13 05:11:00,
2013-02-12 22:21:00,15.0,5.0,-100.00,SW,215,14.0,15.0,63,-99.99,,,-99.99,,2013-02-13 05:21:00,
2013-02-12 22:31:00,15.0,4.0,-100.00,SW,215,13.0,17.0,63,-99.99,,,-99.99,,2013-02-13 05:31:00,
2013-02-12 22:41:00,14.0,4.0,-100.00,SSW,210,12.0,16.0,63,-99.99,,,-99.99,,2013-02-13 05:41:00,
2013-02-12 22:51:00,14.0,4.0,-100.00,SW,215,14.0,15.0,64,-99.99,,,-99.99,,2013-02-13 05:51:00,
2013-02-12 23:01:00,14.0,4.0,-100.00,SSW,210,14.0,16.0,63,-99.99,,,-99.99,,2013-02-13 06:01:00,
2013-02-12 23:11:00,14.0,4.0,-100.00,SW,220,14.0,16.0,62,-99.99,,,-99.99,,2013-02-13 06:11:00,
2013-02-12 23:21:00,14.0,4.0,-100.00,ESE,110,9.0,15.0,62,-99.99,,,-99.99,,2013-02-13 06:21:00,
2013-02-12 23:31:00,13.0,3.0,-100.00,SE,140,7.0,14.0,62,-99.99,,,-99.99,,2013-02-13 06:31:00,
2013-02-12 23:41:00,14.0,4.0,-100.00,SW,220,17.0,20.0,63,-99.99,,,-99.99,,2013-02-13 06:41:00,
2013-02-12 23:51:00,13.0,3.0,-100.00,SW,220,17.0,21.0,63,-99.99,,,-99.99,,2013-02-13 06:51:00,